Location: Alsip
(41.6689°N, 87.7387°W)
Time: 13:53:47
(UTC+00:00)

Cosmos 2181 Rocket - Pass Details

Date: 14 July 2020
Orbit: 951 x 1015 km, 82.9° (Epoch: 05 August)

Event Time Altitude Azimuth Distance (km) Brightness Sun altitude
Rises 02:46:56 0° 350° (N) 3,703 8.0 -13.0°
Reaches altitude 10° 02:49:29 10° 349° (N) 2,741 7.3 -13.3°
Maximum altitude 02:55:43 73° 266° (W) 1,011 4.2 -14.1°
Drops below altitude 10° 03:01:50 10° 182° (S) 2,683 5.9 -14.9°
Enters shadow 03:01:55 10° 182° (S) 2,712 5.9 -14.9°
